Time,TemperatureF,DewpointF,PressureIn,WindDirection,WindDirectionDegrees,WindSpeedMPH,WindSpeedGustMPH,Humidity,HourlyPrecipIn,Conditions,Clouds,dailyrainin,SoftwareType,DateUTC
2013-07-06 00:02:00,71.6,70.4,30.19,South,184,0.0,2.0,96,0.03,,---,0.00,VWS V13.01,2013-07-06 04:02:00,
2013-07-06 00:32:00,71.6,70.4,30.18,South,184,0.0,3.0,96,0.03,,---,0.00,VWS V13.01,2013-07-06 04:32:00,
2013-07-06 01:02:00,71.8,70.6,30.18,WSW,239,0.0,3.0,96,0.03,,---,0.00,VWS V13.01,2013-07-06 05:02:00,
2013-07-06 01:32:00,72.0,70.8,30.17,WSW,240,0.0,2.0,96,0.00,,---,0.00,VWS V13.01,2013-07-06 05:32:00,
2013-07-06 02:02:00,72.1,70.9,30.16,WSW,254,0.0,3.0,96,0.00,,---,0.00,VWS V13.01,2013-07-06 06:02:00,
2013-07-06 02:32:00,72.2,71.0,30.16,SW,228,0.0,4.0,96,0.00,,---,0.00,VWS V13.01,2013-07-06 06:32:00,
2013-07-06 03:02:00,72.1,70.9,30.16,SSW,201,1.0,4.0,96,0.00,,---,0.00,VWS V13.01,2013-07-06 07:02:00,
2013-07-06 03:32:00,72.1,70.9,30.15,SSW,205,0.0,3.0,96,0.00,,---,0.00,VWS V13.01,2013-07-06 07:32:00,
2013-07-06 04:02:00,72.1,70.9,30.15,SSW,207,0.0,2.0,96,0.00,,---,0.00,VWS V13.01,2013-07-06 08:02:00,
2013-07-06 04:32:00,72.0,70.8,30.16,SW,222,0.0,4.0,96,0.03,,---,0.03,VWS V13.01,2013-07-06 08:32:00,
2013-07-06 05:02:00,71.7,70.8,30.15,SSW,209,0.0,4.0,97,0.03,,---,0.03,VWS V13.01,2013-07-06 09:02:00,
2013-07-06 05:32:00,71.6,70.4,30.15,SW,234,0.0,5.0,96,0.03,,---,0.03,VWS V13.01,2013-07-06 09:32:00,
2013-07-06 06:02:00,71.3,70.1,30.16,SW,228,0.0,3.0,96,0.00,,---,0.03,VWS V13.01,2013-07-06 10:02:00,
2013-07-06 06:32:00,70.9,69.7,30.17,SW,236,0.0,3.0,96,0.00,,---,0.03,VWS V13.01,2013-07-06 10:32:00,
2013-07-06 07:02:00,71.0,70.1,30.18,SW,236,0.0,2.0,97,0.00,,---,0.03,VWS V13.01,2013-07-06 11:02:00,
2013-07-06 07:32:00,71.2,70.3,30.18,SW,236,0.0,2.0,97,0.00,,---,0.03,VWS V13.01,2013-07-06 11:32:00,
2013-07-06 08:02:00,71.5,70.3,30.19,SW,221,0.0,2.0,96,0.00,,---,0.03,VWS V13.01,2013-07-06 12:02:00,
2013-07-06 08:32:00,72.2,71.0,30.19,SW,218,0.0,3.0,96,0.00,,---,0.03,VWS V13.01,2013-07-06 12:32:00,
2013-07-06 09:02:00,73.5,72.0,30.19,SSW,209,0.0,4.0,95,0.00,,---,0.03,VWS V13.01,2013-07-06 13:02:00,
2013-07-06 09:32:00,74.1,71.6,30.19,SSW,203,0.0,4.0,92,0.00,,---,0.03,VWS V13.01,2013-07-06 13:32:00,
2013-07-06 10:02:00,74.1,71.6,30.18,SSW,207,0.0,3.0,92,0.02,,---,0.05,VWS V13.01,2013-07-06 14:02:00,
2013-07-06 10:32:00,74.2,72.1,30.18,SSE,168,1.0,3.0,93,0.02,,---,0.05,VWS V13.01,2013-07-06 14:32:00,
2013-07-06 11:02:00,75.7,73.2,30.18,SE,143,0.0,3.0,92,0.02,,---,0.05,VWS V13.01,2013-07-06 15:02:00,
2013-07-06 11:32:00,78.2,73.0,30.18,SSW,210,0.0,6.0,84,0.00,,---,0.05,VWS V13.01,2013-07-06 15:32:00,
2013-07-06 12:02:00,79.1,72.8,30.18,SW,215,0.0,6.0,81,0.00,,---,0.05,VWS V13.01,2013-07-06 16:02:00,
2013-07-06 13:32:00,82.6,72.2,30.15,SSW,195,2.0,8.0,71,0.01,,---,0.06,VWS V13.01,2013-07-06 17:32:00,
2013-07-06 14:02:00,85.0,74.1,30.13,East,86,0.0,7.0,70,0.00,,---,0.06,VWS V13.01,2013-07-06 18:02:00,
2013-07-06 14:32:00,85.4,74.1,30.12,SW,217,0.0,6.0,69,0.00,,---,0.06,VWS V13.01,2013-07-06 18:32:00,
2013-07-06 15:02:00,78.2,72.6,30.13,SSW,209,0.0,9.0,83,0.13,,---,0.19,VWS V13.01,2013-07-06 19:02:00,
2013-07-06 17:02:00,81.8,76.1,30.08,SW,219,0.0,3.0,83,0.00,,---,0.20,VWS V13.01,2013-07-06 21:02:00,
2013-07-06 17:32:00,78.4,75.9,30.09,SSW,194,0.0,3.0,92,0.11,,---,0.31,VWS V13.01,2013-07-06 21:32:00,
2013-07-06 18:32:00,75.6,73.1,30.08,SW,230,2.0,5.0,92,0.13,,---,0.33,VWS V13.01,2013-07-06 22:32:00,
2013-07-06 19:02:00,75.7,73.2,30.09,SW,214,0.0,4.0,92,0.09,,---,0.40,VWS V13.01,2013-07-06 23:02:00,
2013-07-06 19:32:00,75.7,73.8,30.11,SW,214,0.0,1.0,94,0.09,,---,0.40,VWS V13.01,2013-07-06 23:32:00,
2013-07-06 21:02:00,73.0,71.2,30.11,NW,305,0.0,10.0,94,0.09,,---,0.49,VWS V13.01,2013-07-07 01:02:00,
2013-07-06 21:32:00,73.0,71.5,30.12,North,357,0.0,4.0,95,0.13,,---,0.53,VWS V13.01,2013-07-07 01:32:00,
2013-07-06 23:02:00,72.9,71.7,30.15,North,357,0.0,1.0,96,0.00,,---,0.53,VWS V13.01,2013-07-07 03:02:00,
2013-07-06 23:32:00,73.1,71.9,30.15,NNW,346,0.0,2.0,96,0.00,,---,0.53,VWS V13.01,2013-07-07 03:32:00,